SCP
1 1 1 1 1 1 1 1 1 1 1 1 1 1 1 1 1 1 1 1 1 1 1 1 1 0 0 0 0 0 0 0 0 0 0 0 0 0 0 0 0 0 0
1 1 1 1 1 1 1 1 1 1 1 1 1 1 1 1 1 1 1 1 1 1 1 1 1 0 0 0 0 0 0 0 0 0 0 0 0 0 0 0 0 0 0
2 1 1 1 1 1 1 1 1 1 1 1 1 1 1 1 1 1 1 1 1 1 1 1 1 0 0 0 0 0 0 0 0 1 0 0 0 0 0 0 0 0 0
2 2 2 2 1 1 1 1 1 1 1 1 1 1 1 1 1 1 1 1 1 1 1 1 1 0 0 0 0 0 0 0 0 1 0 0 0 0 0 0 0 0 0
2 2 2 2 2 2 1 1 1 1 1 1 1 1 1 1 1 1 1 1 1 1 1 1 1 0 0 0 0 0 0 0 0 0 0 0 0 0 0 0 0 0 0
2 2 2 2 2 2 2 1 1 1 1 1 1 1 1 1 1 1 1 1 1 1 1 1 1 0 0 0 0 0 0 0 0 0 0 0 0 0 1 1 1 0 0
3 3 2 2 2 2 2 2 2 1 1 1 1 1 1 1 1 1 1 1 1 1 1 1 1 1 0 0 0 0 0 1 1 0 0 0 0 0 1 1 1 1 0
3 3 3 2 2 2 2 2 2 2 1 1 1 1 1 1 1 1 1 1 1 1 1 1 1 1 1 1 1 1 1 1 1 0 0 0 0 1 1 1 1 1 1
4 3 3 3 2 2 2 2 2 2 2 1 1 1 1 1 2 2 2 2 1 1 1 1 1 1 1 1 1 1 1 1 1 0 0 0 1 1 1 1 1 1 1
3 3 3 3 2 2 2 2 2 2 2 2 1 2 2 2 2 2 2 2 2 1 1 1 1 1 1 1 1 1 1 1 1 1 0 1 1 1 1 1 1 1 1
3 3 4 3 2 2 2 2 2 2 2 2 2 2 2 2 2 2 2 2 2 2 1 1 1 1 1 1 1 1 1 1 1 1 1 1 1 1 1 1 1 1 1
3 3 3 3 2 2 2 2 2 2 2 2 1 2 2 2 2 1 1 1 2 1 1 1 2 2 1 1 1 1 1 1 1 1 1 1 1 1 2 2 2 1 1
3 3 3 2 2 2 2 2 2 2 2 2 2 2 2 2 1 1 1 1 1 1 1 2 2 1 1 1 1 1 1 1 1 1 1 1 1 1 2 2 2 1 1
3 3 3 3 2 2 2 2 2 2 1 1 1 1 1 1 1 1 1 1 1 1 1 2 1 1 1 1 1 1 1 1 1 1 1 1 2 2 2 2 2 2 1
3 3 4 3 2 2 2 2 2 2 2 1 1 1 1 1 1 1 1 1 1 1 1 1 1 1 1 1 1 1 1 1 1 1 1 1 2 2 2 2 2 2 1
2 3 3 3 2 2 2 2 2 2 2 2 2 1 2 2 1 1 1 1 1 1 1 1 1 1 1 1 1 1 1 1 1 1 1 1 2 2 2 2 2 2 1
2 2 2 2 2 1 1 2 2 2 2 2 2 2 2 2 1 1 1 1 1 1 1 1 1 1 1 1 1 1 1 1 1 1 1 1 1 1 2 2 2 2 2
2 2 2 2 2 2 2 2 2 2 2 2 2 2 2 2 1 1 1 1 1 1 1 1 1 1 0 0 0 1 1 1 1 1 1 1 1 1 1 2 2 2 2
2 2 3 2 2 3 2 2 2 2 2 2 2 2 2 2 1 1 1 1 1 1 1 1 1 1 0 0 0 0 0 0 1 1 1 1 1 1 1 1 2 2 2
3 3 3 3 3 3 3 2 2 2 3 3 2 2 2 2 1 1 1 1 1 1 1 1 1 1 0 0 0 0 0 0 1 1 1 1 1 1 1 1 2 2 2
3 3 3 2 2 2 2 2 2 2 3 3 2 2 2 2 2 2 1 1 1 1 1 1 1 1 1 0 0 0 0 0 0 0 0 1 1 1 1 2 2 2 2
2 2 2 2 2 2 2 2 2 2 2 2 2 2 2 2 2 1 1 1 1 1 1 1 1 1 1 0 0 0 0 0 0 0 0 0 0 0 1 1 1 1 1
2 2 2 1 1 2 2 2 2 2 2 2 2 2 2 2 1 1 1 1 1 1 1 1 1 1 1 0 0 0 0 0 0 0 0 0 0 0 0 1 1 1 1
3 3 2 2 1 1 2 2 2 2 2 2 2 2 1 1 1 1 1 1 1 1 1 1 1 1 1 1 1 0 0 0 0 0 0 0 0 0 0 0 0 0 0
4 3 2 2 1 1 1 2 2 1 1 1 1 1 1 1 0 0 0 0 1 1 1 1 2 2 1 1 1 0 0 0 0 0 0 0 0 0 0 0 0 0 0
4 3 2 2 1 1 1 1 1 1 1 1 1 1 1 0 0 0 0 0 0 1 1 1 2 2 2 1 1 0 0 0 0 0 0 0 0 0 0 0 0 0 0
Wind_Speed
7 8 14 15 15 16 16 16 16 17 17 17 17 17 17 17 16 16 15 15 14 13 13 13 13 12 12 13 14 14 15 15 16 16 16 15 15 15 16 16 15 11 16
12 11 15 15 16 16 16 16 16 16 16 16 16 16 16 15 15 14 14 13 13 12 12 12 12 12 12 12 12 13 14 14 14 15 15 14 15 15 15 15 14 10 15
14 11 14 15 16 16 15 15 16 16 16 15 15 15 15 14 14 13 13 12 11 11 11 11 10 10 10 10 10 11 11 12 12 13 12 7 9 14 15 15 15 14 14
13 9 12 16 16 16 16 15 15 16 15 15 15 14 14 13 13 12 12 12 11 10 10 9 9 9 8 8 8 9 9 9 9 10 5 4 6 14 15 15 14 14 13
10 8 12 17 16 16 16 15 15 15 15 14 14 13 13 12 11 11 11 11 10 9 8 8 8 7 7 6 6 6 6 5 5 5 4 4 5 12 14 14 14 13 13
10 9 11 16 16 15 15 15 15 14 14 14 13 12 12 11 10 10 10 10 9 8 8 7 6 6 5 4 4 4 3 3 3 3 3 4 5 12 14 14 14 13 12
10 8 10 14 15 15 15 14 14 14 13 12 12 11 10 10 9 8 8 8 8 7 7 6 5 4 3 3 2 1 1 1 2 2 3 4 6 12 14 14 13 13 12
11 8 9 14 15 14 14 13 13 12 11 11 11 10 9 9 8 8 7 7 7 6 6 5 5 4 3 2 1 1 1 1 2 2 3 5 8 12 13 13 13 12 12
10 8 6 7 10 12 13 12 12 11 11 10 10 9 9 8 8 8 7 6 6 5 5 5 4 4 3 3 3 2 2 1 2 1 4 4 9 12 13 13 13 12 12
8 7 6 6 6 6 7 11 11 11 10 10 10 9 9 8 7 7 6 5 6 6 5 5 4 4 4 4 4 4 3 1 1 1 2 5 12 14 14 13 13 12 12
8 5 4 5 5 5 6 8 8 9 9 9 7 9 7 3 3 3 5 5 5 5 5 5 5 5 4 4 6 5 3 0 1 1 3 8 13 14 13 13 13 12 12
7 4 3 4 4 4 5 4 3 3 4 3 3 4 3 2 2 3 4 5 5 4 4 5 5 5 4 2 4 5 1 1 1 2 4 11 13 13 13 13 13 13 12
6 6 4 2 3 4 4 3 2 2 2 3 3 3 2 2 1 1 1 1 2 3 2 3 3 2 1 1 1 1 1 2 1 2 4 10 12 13 13 12 12 12 12
4 4 5 3 3 3 4 3 2 2 2 2 3 3 2 1 1 1 1 1 1 1 1 1 1 2 1 1 1 2 1 1 1 1 3 9 11 12 12 12 12 12 12
4 4 4 4 3 3 3 2 2 2 2 2 2 2 2 2 2 1 1 1 2 2 2 2 2 2 1 1 1 1 1 1 2 2 2 9 12 11 11 12 12 11 12
3 2 3 4 3 3 2 2 2 2 1 2 2 2 2 2 2 2 2 1 1 2 2 2 2 2 2 1 1 1 2 2 2 2 1 4 9 9 9 10 10 11 11
3 3 2 4 4 4 3 2 2 2 2 2 1 1 2 1 1 1 1 1 1 1 1 1 1 1 1 0 1 1 1 2 2 2 2 1 3 6 8 8 8 8 10
4 3 3 3 4 3 3 3 2 2 3 2 2 2 2 2 1 1 1 0 1 0 1 1 1 1 1 0 0 1 0 1 2 2 2 2 2 2 5 7 7 7 9
4 4 4 4 4 3 3 3 3 3 4 3 3 2 2 2 2 1 1 0 1 0 0 1 1 1 1 1 1 0 0 0 1 1 2 2 2 2 2 4 6 7 8
5 5 6 6 5 4 3 3 3 4 4 3 3 3 3 3 3 2 1 1 1 1 1 0 1 1 2 2 1 1 1 1 1 1 1 2 2 2 2 1 2 3 6
7 7 7 6 5 3 2 2 2 2 2 3 3 4 4 4 3 3 2 2 2 1 0 0 0 1 1 2 2 2 2 3 3 2 2 2 2 2 2 2 1 1 2
6 7 7 6 5 4 3 1 1 2 2 2 3 4 5 4 4 3 3 2 2 2 2 1 0 1 1 1 2 2 1 1 3 3 2 2 2 2 3 3 3 3 2
7 7 6 7 6 5 4 3 3 3 3 3 3 3 4 5 4 4 3 3 2 2 1 1 1 1 1 1 1 2 2 2 1 2 3 4 3 3 3 3 4 4 4
7 6 7 7 7 6 5 4 4 3 2 2 2 2 4 5 5 5 4 4 3 2 2 2 2 0 1 1 1 0 1 3 3 2 2 3 5 5 4 4 5 5 5
7 6 6 7 7 7 6 5 5 4 3 2 3 4 4 5 6 6 5 4 4 3 2 2 2 1 0 1 1 1 1 1 2 3 3 2 4 4 4 5 4 4 5
7 6 6 7 7 7 7 6 6 5 5 5 4 4 3 3 4 6 5 5 4 4 3 2 2 2 1 1 1 1 2 2 2 3 4 3 3 3 4 4 4 5 5
Wind_Direction
142 150 141 132 126 121 117 113 111 109 106 105 104 103 103 104 106 107 109 110 110 110 109 107 105 103 104 105 107 109 111 114 115 116 115 114 114 115 114 110 107 106 108
144 148 140 134 129 126 123 120 116 113 111 109 107 105 105 105 105 105 106 106 107 108 108 107 105 106 107 108 111 114 116 120 120 119 115 112 113 116 117 114 112 114 112
137 142 139 135 133 130 127 124 121 119 117 114 112 110 109 108 107 107 106 106 107 108 109 108 107 106 108 111 113 116 119 122 121 118 111 104 109 114 118 116 117 116 114
134 137 138 137 135 132 130 128 127 126 124 121 119 117 115 114 112 112 112 112 111 111 112 111 110 109 111 114 115 117 120 124 125 124 115 119 118 120 121 121 121 119 117
127 129 138 137 135 134 133 132 132 130 129 128 127 125 123 122 119 119 120 119 117 117 117 116 117 117 118 119 119 120 123 131 136 127 123 127 122 130 128 127 126 124 122
123 126 136 137 136 136 136 136 135 135 134 133 132 132 131 130 128 127 127 127 126 125 125 126 127 127 127 128 126 123 128 139 128 112 129 143 143 143 138 135 133 131 129
120 121 132 133 136 137 138 138 138 138 138 138 138 138 138 137 136 135 135 135 136 136 136 137 138 139 139 142 147 129 110 73 115 129 152 159 161 154 148 143 140 139 136
117 116 124 132 136 137 138 138 137 138 139 139 141 143 143 143 143 144 145 146 146 146 146 149 155 160 165 182 222 264 299 325 104 119 162 165 170 161 154 150 147 146 144
112 113 114 126 132 135 136 136 138 139 140 142 144 145 146 147 150 152 154 157 158 158 162 168 176 185 197 218 248 270 289 315 92 133 167 167 175 167 163 159 156 154 152
98 103 107 107 113 122 128 134 137 139 141 144 147 148 148 151 155 158 158 166 171 174 181 187 197 209 221 237 255 264 273 322 101 162 174 185 183 175 170 167 165 163 160
96 87 98 107 112 119 127 134 135 137 138 139 144 149 146 147 157 164 169 171 181 188 197 203 210 224 237 252 262 262 266 192 159 190 186 194 185 179 176 174 172 171 168
114 111 105 119 123 122 124 114 116 127 127 127 133 141 146 156 174 178 181 184 183 196 218 225 226 234 243 262 274 272 235 196 200 202 201 199 188 184 180 179 177 177 175
127 122 110 125 131 123 113 120 126 127 129 133 139 149 153 154 173 181 166 189 192 203 219 241 243 233 224 229 264 256 222 203 200 209 205 200 192 185 181 182 183 184 183
82 95 101 113 124 117 120 135 146 140 147 152 160 160 147 137 142 174 189 182 185 214 214 226 238 233 228 217 233 242 221 211 200 202 206 196 195 190 185 184 187 188 187
66 58 106 113 123 124 124 143 142 145 150 146 132 150 152 150 155 162 170 182 195 209 208 213 221 221 207 208 227 234 183 181 193 206 210 198 194 189 186 187 190 190 189
73 77 90 104 118 116 117 127 134 139 146 134 128 142 143 140 149 165 166 180 205 215 216 210 217 209 206 196 207 205 180 165 178 185 190 196 186 179 179 182 188 191 192
95 76 86 117 113 113 115 119 114 116 105 88 89 95 108 115 143 146 146 177 221 223 210 205 206 170 184 242 266 227 188 177 169 167 157 170 185 188 184 182 184 187 190
79 68 82 97 94 106 106 97 92 93 90 78 65 60 58 67 88 101 109 259 276 217 195 205 186 136 143 178 280 307 249 183 156 162 162 166 169 184 194 182 178 180 185
73 71 73 74 68 69 78 85 85 79 74 70 60 48 39 42 55 70 63 341 337 358 260 231 175 160 168 170 141 92 103 121 156 155 143 155 161 164 169 178 176 175 174
70 68 58 58 53 52 65 77 78 75 65 59 56 44 36 28 35 43 40 13 19 46 359 329 210 169 156 152 110 79 65 59 76 72 106 121 133 147 147 145 150 162 165
63 61 49 43 32 34 46 66 81 78 67 54 48 42 37 29 30 42 31 17 14 26 329 298 174 151 154 144 112 84 58 55 63 63 69 92 105 124 111 105 101 96 153
62 59 53 41 30 27 32 42 80 89 76 66 43 36 31 30 26 39 38 22 10 9 10 9 98 184 186 161 136 137 140 57 34 38 55 81 78 83 83 82 82 77 82
59 52 50 38 31 25 30 52 70 63 56 46 38 28 23 32 33 35 34 30 13 14 360 348 350 199 203 180 152 161 161 170 116 36 38 54 63 70 72 67 72 75 85
62 55 49 41 35 28 35 59 75 86 83 60 56 40 27 30 29 27 28 28 23 18 10 356 4 318 184 178 177 134 135 143 147 127 46 43 51 54 56 68 68 65 70
63 55 49 46 40 34 41 52 69 71 72 70 67 54 37 28 28 25 26 24 21 17 15 17 11 14 298 168 155 142 109 88 105 132 130 84 56 41 47 57 64 63 63
63 54 49 49 43 37 43 49 64 72 72 73 63 53 38 26 22 21 24 22 19 17 16 14 20 32 32 82 99 111 135 144 147 131 132 120 93 53 43 47 58 59 58